| time (UTC) | temp F | wind direction | speed knots | gust knots | rain 1hr in | rain 24hr in | rain mn in | humidity % | barometer mb |
| 20260504050733 | 61 | 321 | 4.3 | 6.1 | 0.00 | 0.00 | 0.00 | 74 | 1013.4 |
| 20260504050233 | 61 | 323 | 2.6 | 5.2 | 0.00 | 0.00 | 0.00 | 74 | 1013.6 |
| 20260504045733 | 61 | 275 | 0.0 | 5.2 | 0.00 | 0.00 | 0.00 | 75 | 1013.8 |
| 20260504045234 | 61 | 295 | 1.7 | 5.2 | 0.00 | 0.00 | 0.00 | 75 | 1013.9 |
| 20260504044733 | 61 | 258 | 0.0 | 5.2 | 0.00 | 0.00 | 0.00 | 75 | 1013.7 |
| 20260504044233 | 61 | 271 | 3.5 | 5.2 | 0.00 | 0.00 | 0.00 | 75 | 1013.8 |
| 20260504043734 | 61 | 283 | 1.7 | 5.2 | 0.00 | 0.00 | 0.00 | 75 | 1013.4 |
| 20260504043234 | 61 | 246 | 3.5 | 5.2 | 0.00 | 0.00 | 0.00 | 75 | 1013.6 |
| 20260504042955 | 61 | 230 | 4.3 | 6.1 | 0.00 | 0.00 | 0.00 | 75 | 1013.7 |
| 20260504042452 | 61 | 264 | 4.3 | 6.1 | 0.00 | 0.00 | 0.00 | 75 | 1013.4 |
| 20260504041733 | 61 | 300 | 0.9 | 5.2 | 0.00 | 0.00 | 0.00 | 74 | 1013.3 |
| 20260504041233 | 61 | 266 | 0.9 | 5.2 | 0.00 | 0.00 | 0.00 | 73 | 1013.5 |
| 20260504040732 | 61 | 270 | 3.5 | 5.2 | 0.00 | 0.00 | 0.00 | 74 | 1013.3 |
| 20260504040232 | 61 | 272 | 2.6 | 5.2 | 0.00 | 0.00 | 0.00 | 73 | 1013.1 |
| 20260504035733 | 61 | 305 | 3.5 | 4.3 | 0.00 | 0.00 | 0.00 | 73 | 1013.0 |
| 20260504035233 | 61 | 258 | 0.9 | 2.6 | 0.00 | 0.00 | 0.00 | 73 | 1013.0 |
| 20260504034731 | 61 | 271 | 1.7 | 4.3 | 0.00 | 0.00 | 0.00 | 73 | 1013.0 |
| 20260504034231 | 61 | 223 | 2.6 | 4.3 | 0.00 | 0.00 | 0.00 | 73 | 1013.2 |
| 20260504033732 | 61 | 301 | 1.7 | 5.2 | 0.00 | 0.00 | 0.00 | 74 | 1013.1 |
| 20260504032954 | 61 | 257 | 1.7 | 7.0 | 0.00 | 0.00 | 0.00 | 73 | 1013.3 |
| 20260504032231 | 61 | 230 | 0.9 | 7.0 | 0.00 | 0.00 | 0.00 | 74 | 1013.3 |
| 20260504031732 | 61 | 259 | 1.7 | 5.2 | 0.00 | 0.00 | 0.00 | 74 | 1013.1 |
| 20260504031232 | 61 | 246 | 2.6 | 6.1 | 0.00 | 0.00 | 0.00 | 73 | 1013.0 |
| 20260504030730 | 61 | 248 | 1.7 | 6.1 | 0.00 | 0.00 | 0.00 | 73 | 1013.0 |
| 20260504030230 | 61 | 258 | 1.7 | 4.3 | 0.00 | 0.00 | 0.00 | 73 | 1013.0 |
| 20260504025732 | 62 | 239 | 0.0 | 5.2 | 0.00 | 0.00 | 0.00 | 74 | 1012.9 |
| 20260504025231 | 62 | 304 | 2.6 | 6.1 | 0.00 | 0.00 | 0.00 | 74 | 1012.9 |
| 20260504024953 | 62 | 260 | 1.7 | 6.1 | 0.00 | 0.00 | 0.00 | 73 | 1012.9 |
| 20260504024446 | 62 | 242 | 1.7 | 6.1 | 0.00 | 0.00 | 0.00 | 73 | 1012.8 |
| 20260504023733 | 62 | 281 | 2.6 | 6.1 | 0.00 | 0.00 | 0.00 | 73 | 1012.8 |
| 20260504022729 | 62 | 227 | 2.6 | 5.2 | 0.00 | 0.00 | 0.00 | 72 | 1012.8 |
| 20260504022229 | 62 | 259 | 0.0 | 7.8 | 0.00 | 0.00 | 0.00 | 71 | 1012.9 |
| 20260504021729 | 62 | 272 | 0.9 | 7.8 | 0.00 | 0.00 | 0.00 | 70 | 1012.7 |
| 20260504021231 | 62 | 250 | 2.6 | 5.2 | 0.00 | 0.00 | 0.00 | 69 | 1012.9 |
| 20260504020731 | 62 | 225 | 0.0 | 6.1 | 0.00 | 0.00 | 0.00 | 68 | 1013.0 |
| 20260504020230 | 62 | 215 | 0.0 | 7.0 | 0.00 | 0.00 | 0.00 | 69 | 1012.9 |
| 20260504015729 | 63 | 319 | 2.6 | 7.0 | 0.00 | 0.00 | 0.00 | 69 | 1012.8 |
| 20260504015231 | 63 | 310 | 3.5 | 7.0 | 0.00 | 0.00 | 0.00 | 69 | 1012.7 |
| 20260504014731 | 63 | 275 | 3.5 | 7.8 | 0.00 | 0.00 | 0.00 | 69 | 1012.8 |
| 20260504014451 | 63 | 317 | 3.5 | 8.7 | 0.00 | 0.00 | 0.00 | 69 | 1012.6 |
| 20260504013729 | 63 | 273 | 2.6 | 8.7 | 0.00 | 0.00 | 0.00 | 68 | 1012.6 |
| 20260504013458 | 63 | 307 | 3.5 | 7.8 | 0.00 | 0.00 | 0.00 | 68 | 1012.7 |
| 20260504012730 | 63 | 249 | 2.6 | 7.0 | 0.00 | 0.00 | 0.00 | 69 | 1012.8 |
| 20260504012228 | 63 | 273 | 1.7 | 7.8 | 0.00 | 0.00 | 0.00 | 69 | 1012.7 |
| 20260504011728 | 63 | 222 | 1.7 | 8.7 | 0.00 | 0.00 | 0.00 | 69 | 1012.6 |
| 20260504011229 | 63 | 309 | 2.6 | 8.7 | 0.00 | 0.00 | 0.00 | 69 | 1012.5 |
| 20260504010729 | 63 | 281 | 3.5 | 8.7 | 0.00 | 0.00 | 0.00 | 68 | 1012.4 |
| 20260504010229 | 63 | 251 | 6.1 | 8.7 | 0.00 | 0.00 | 0.00 | 69 | 1012.4 |
| 20260504005727 | 63 | 239 | 3.5 | 8.7 | 0.00 | 0.00 | 0.00 | 68 | 1012.4 |
| 20260504005229 | 63 | 331 | 4.3 | 7.8 | 0.00 | 0.00 | 0.00 | 67 | 1012.4 |
| 20260504004730 | 63 | 347 | 6.1 | 10.4 | 0.00 | 0.00 | 0.00 | 67 | 1012.2 |
| 20260504004443 | 63 | 273 | 5.2 | 10.4 | 0.00 | 0.00 | 0.00 | 68 | 1012.2 |
| 20260504003727 | 63 | 286 | 3.5 | 8.7 | 0.00 | 0.00 | 0.00 | 68 | 1012.0 |
| 20260504003229 | 63 | 264 | 4.3 | 7.8 | 0.00 | 0.00 | 0.00 | 68 | 1012.1 |
| 20260504002227 | 63 | 282 | 4.3 | 11.3 | 0.00 | 0.00 | 0.00 | 68 | 1012.1 |
| 20260504001450 | 64 | 260 | 3.5 | 8.7 | 0.00 | 0.00 | 0.00 | 68 | 1012.0 |
| 20260504000728 | 64 | 304 | 4.3 | 10.4 | 0.00 | 0.00 | 0.00 | 68 | 1012.0 |
| 20260504000226 | 64 | 297 | 3.5 | 10.4 | 0.00 | 0.00 | 0.00 | 67 | 1011.9 |
| 20260503235727 | 64 | 276 | 2.6 | 7.8 | 0.00 | 0.00 | 0.00 | 67 | 1011.9 |
| 20260503235227 | 64 | 323 | 7.0 | 7.8 | 0.00 | 0.00 | 0.00 | 66 | 1011.7 |
| 20260503234227 | 65 | 256 | 3.5 | 11.3 | 0.00 | 0.00 | 0.00 | 64 | 1011.9 |
| 20260503233726 | 65 | 302 | 3.5 | 8.7 | 0.00 | 0.00 | 0.00 | 64 | 1011.6 |
| 20260503233227 | 65 | 315 | 4.3 | 8.7 | 0.00 | 0.00 | 0.00 | 64 | 1011.5 |
| 20260503232727 | 65 | 262 | 3.5 | 10.4 | 0.00 | 0.00 | 0.00 | 63 | 1011.5 |
| 20260503232225 | 65 | 257 | 3.5 | 10.4 | 0.00 | 0.00 | 0.00 | 62 | 1011.7 |
| 20260503231725 | 66 | 306 | 3.5 | 8.7 | 0.00 | 0.00 | 0.00 | 61 | 1011.6 |
| 20260503231227 | 66 | 300 | 6.1 | 8.7 | 0.00 | 0.00 | 0.00 | 61 | 1011.6 |
| 20260503230726 | 66 | 296 | 5.2 | 8.7 | 0.00 | 0.00 | 0.00 | 61 | 1011.8 |
| 20260503230225 | 66 | 273 | 1.7 | 11.3 | 0.00 | 0.00 | 0.00 | 61 | 1011.8 |
| 20260503225726 | 66 | 338 | 7.8 | 11.3 | 0.00 | 0.00 | 0.00 | 61 | 1011.7 |
| 20260503225226 | 66 | 267 | 4.3 | 8.7 | 0.00 | 0.00 | 0.00 | 59 | 1011.9 |
| 20260503224948 | 66 | 325 | 5.2 | 10.4 | 0.00 | 0.00 | 0.00 | 61 | 1012.0 |
| 20260503224225 | 66 | 254 | 1.7 | 10.4 | 0.00 | 0.00 | 0.00 | 59 | 1012.0 |
| 20260503223726 | 66 | 262 | 1.7 | 7.0 | 0.00 | 0.00 | 0.00 | 58 | 1012.0 |
| 20260503223224 | 66 | 354 | 4.3 | 7.8 | 0.00 | 0.00 | 0.00 | 58 | 1012.0 |
| 20260503222725 | 66 | 291 | 3.5 | 13.0 | 0.00 | 0.00 | 0.00 | 58 | 1011.9 |
| 20260503222225 | 66 | 325 | 5.2 | 13.0 | 0.00 | 0.00 | 0.00 | 59 | 1011.9 |
| 20260503221725 | 66 | 349 | 6.1 | 8.7 | 0.00 | 0.00 | 0.00 | 59 | 1012.0 |
| 20260503221224 | 66 | 270 | 3.5 | 7.8 | 0.00 | 0.00 | 0.00 | 60 | 1012.1 |
| 20260503220725 | 66 | 351 | 5.2 | 8.7 | 0.00 | 0.00 | 0.00 | 60 | 1012.0 |
| 20260503220225 | 66 | 273 | 3.5 | 11.3 | 0.00 | 0.00 | 0.00 | 58 | 1012.1 |
| 20260503215724 | 66 | 291 | 4.3 | 12.2 | 0.00 | 0.00 | 0.00 | 58 | 1012.1 |
| 20260503215224 | 66 | 282 | 5.2 | 12.2 | 0.00 | 0.00 | 0.00 | 58 | 1012.3 |
| 20260503214724 | 66 | 327 | 7.8 | 8.7 | 0.00 | 0.00 | 0.00 | 58 | 1012.4 |
| 20260503214225 | 66 | 281 | 3.5 | 7.8 | 0.00 | 0.00 | 0.00 | 58 | 1012.4 |
| 20260503213723 | 66 | 340 | 4.3 | 8.7 | 0.00 | 0.00 | 0.00 | 60 | 1012.4 |
| 20260503213444 | 66 | 285 | 3.5 | 10.4 | 0.00 | 0.00 | 0.00 | 60 | 1012.4 |
| 20260503212724 | 66 | 334 | 2.6 | 10.4 | 0.00 | 0.00 | 0.00 | 58 | 1012.4 |
| 20260503212448 | 65 | 285 | 2.6 | 12.2 | 0.00 | 0.00 | 0.00 | 58 | 1012.4 |
| 20260503211723 | 65 | 263 | 3.5 | 12.2 | 0.00 | 0.00 | 0.00 | 60 | 1012.5 |
| 20260503211223 | 65 | 296 | 6.1 | 10.4 | 0.00 | 0.00 | 0.00 | 59 | 1012.6 |
| 20260503210724 | 65 | 286 | 2.6 | 10.4 | 0.00 | 0.00 | 0.00 | 61 | 1012.6 |
| 20260503210224 | 65 | 240 | 1.7 | 11.3 | 0.00 | 0.00 | 0.00 | 62 | 1012.6 |
| 20260503205940 | 65 | 334 | 2.6 | 11.3 | 0.00 | 0.00 | 0.00 | 62 | 1012.6 |
| 20260503205222 | 65 | 291 | 4.3 | 10.4 | 0.00 | 0.00 | 0.00 | 62 | 1012.7 |
| 20260503204941 | 65 | 319 | 5.2 | 10.4 | 0.00 | 0.00 | 0.00 | 63 | 1012.6 |
| 20260503204448 | 65 | 351 | 3.5 | 10.4 | 0.00 | 0.00 | 0.00 | 65 | 1012.6 |
| 20260503203722 | 65 | 291 | 7.0 | 11.3 | 0.00 | 0.00 | 0.00 | 62 | 1012.5 |
| 20260503203448 | 66 | 255 | 5.2 | 13.9 | 0.00 | 0.00 | 0.00 | 63 | 1012.6 |
| 20260503202723 | 66 | 325 | 4.3 | 13.9 | 0.00 | 0.00 | 0.00 | 63 | 1012.6 |
| 20260503202222 | 66 | 326 | 10.4 | 13.0 | 0.00 | 0.00 | 0.00 | 63 | 1012.6 |
| 20260503201721 | 66 | 304 | 3.5 | 11.3 | 0.00 | 0.00 | 0.00 | 64 | 1012.6 |
| 20260503201221 | 66 | 260 | 3.5 | 11.3 | 0.00 | 0.00 | 0.00 | 63 | 1012.7 |
| 20260503200947 | 66 | 329 | 4.3 | 11.3 | 0.00 | 0.00 | 0.00 | 62 | 1012.7 |
| 20260503200224 | 66 | 358 | 3.5 | 10.4 | 0.00 | 0.00 | 0.00 | 63 | 1012.7 |
| 20260503195723 | 65 | 277 | 4.3 | 12.2 | 0.00 | 0.00 | 0.00 | 64 | 1012.9 |
| 20260503195221 | 65 | 346 | 1.7 | 12.2 | 0.00 | 0.00 | 0.00 | 66 | 1012.9 |
| 20260503194721 | 65 | 343 | 6.1 | 10.4 | 0.00 | 0.00 | 0.00 | 68 | 1012.9 |
| 20260503194222 | 65 | 273 | 4.3 | 13.9 | 0.00 | 0.00 | 0.00 | 67 | 1012.9 |
| 20260503193946 | 64 | 241 | 5.2 | 13.9 | 0.00 | 0.00 | 0.00 | 69 | 1013.0 |
| 20260503193221 | 65 | 315 | 8.7 | 11.3 | 0.00 | 0.00 | 0.00 | 68 | 1012.9 |
| 20260503192945 | 64 | 346 | 3.5 | 12.2 | 0.00 | 0.00 | 0.00 | 69 | 1013.0 |
| 20260503192221 | 65 | 333 | 8.7 | 13.0 | 0.00 | 0.00 | 0.00 | 68 | 1013.1 |
| 20260503191721 | 65 | 343 | 7.8 | 13.0 | 0.00 | 0.00 | 0.00 | 70 | 1013.0 |
| 20260503191220 | 65 | 284 | 5.2 | 13.0 | 0.00 | 0.00 | 0.00 | 69 | 1013.0 |
| 20260503190720 | 65 | 359 | 7.8 | 14.8 | 0.00 | 0.00 | 0.00 | 68 | 1012.9 |
| 20260503190221 | 65 | 275 | 6.1 | 14.8 | 0.00 | 0.00 | 0.00 | 68 | 1012.9 |
| 20260503185720 | 65 | 296 | 3.5 | 11.3 | 0.00 | 0.00 | 0.00 | 69 | 1012.9 |
| 20260503185220 | 65 | 334 | 3.5 | 11.3 | 0.00 | 0.00 | 0.00 | 68 | 1012.9 |
| 20260503184721 | 65 | 246 | 4.3 | 8.7 | 0.00 | 0.00 | 0.00 | 68 | 1012.9 |
| 20260503184448 | 65 | 318 | 4.3 | 11.3 | 0.00 | 0.00 | 0.00 | 68 | 1012.9 |
| 20260503183944 | 65 | 313 | 5.2 | 11.3 | 0.00 | 0.00 | 0.00 | 68 | 1013.0 |
| 20260503183219 | 65 | 347 | 7.0 | 13.0 | 0.00 | 0.00 | 0.00 | 68 | 1013.0 |
| 20260503182937 | 65 | 337 | 7.0 | 13.0 | 0.00 | 0.00 | 0.00 | 69 | 1012.9 |
| 20260503182220 | 66 | 354 | 3.5 | 12.2 | 0.00 | 0.00 | 0.00 | 68 | 1013.0 |
| 20260503181946 | 66 | 345 | 4.3 | 10.4 | 0.00 | 0.00 | 0.00 | 67 | 1012.9 |
| 20260503181219 | 66 | 336 | 4.3 | 10.4 | 0.00 | 0.00 | 0.00 | 68 | 1012.9 |
| 20260503180718 | 66 | 337 | 7.8 | 8.7 | 0.00 | 0.00 | 0.00 | 68 | 1012.9 |
| 20260503180440 | 66 | 224 | 1.7 | 7.8 | 0.00 | 0.00 | 0.00 | 68 | 1012.8 |
| 20260503175720 | 66 | 261 | 1.7 | 7.8 | 0.00 | 0.00 | 0.00 | 67 | 1012.9 |
| 20260503175218 | 67 | 337 | 2.6 | 6.1 | 0.00 | 0.00 | 0.00 | 68 | 1012.9 |
| 20260503174719 | 66 | 332 | 3.5 | 6.1 | 0.00 | 0.00 | 0.00 | 67 | 1012.8 |
| 20260503174218 | 66 | 246 | 3.5 | 6.1 | 0.00 | 0.00 | 0.00 | 66 | 1012.9 |
| 20260503173720 | 66 | 271 | 0.9 | 4.3 | 0.00 | 0.00 | 0.00 | 66 | 1012.9 |
| 20260503173219 | 66 | 270 | 0.9 | 6.1 | 0.00 | 0.00 | 0.00 | 68 | 1012.9 |
| 20260503172719 | 65 | 261 | 0.0 | 7.0 | 0.00 | 0.00 | 0.00 | 67 | 1012.9 |
| 20260503172218 | 65 | 327 | 5.2 | 7.8 | 0.00 | 0.00 | 0.00 | 68 | 1012.9 |
| 20260503171720 | 65 | 260 | 2.6 | 7.8 | 0.00 | 0.00 | 0.00 | 70 | 1012.8 |
| 20260503171217 | 64 | 343 | 3.5 | 7.8 | 0.00 | 0.00 | 0.00 | 71 | 1012.8 |
| 20260503170717 | 64 | 350 | 5.2 | 7.8 | 0.00 | 0.00 | 0.00 | 71 | 1012.9 |
| 20260503170217 | 64 | 247 | 1.7 | 6.1 | 0.00 | 0.00 | 0.00 | 71 | 1012.9 |
| 20260503160215 | 64 | 289 | 0.9 | 5.2 | 0.00 | 0.00 | 0.00 | 71 | 1012.6 |
| 20260503150715 | 61 | 333 | 3.5 | 7.0 | 0.00 | 0.00 | 0.00 | 75 | 1012.6 |
| 20260503150215 | 61 | 2 | 5.2 | 7.0 | 0.00 | 0.00 | 0.00 | 75 | 1012.7 |
| 20260503140215 | 60 | 321 | 3.5 | 7.0 | 0.00 | 0.00 | 0.00 | 79 | 1012.3 |
| 20260503131214 | 60 | 292 | 4.3 | 7.8 | 0.00 | 0.00 | 0.00 | 80 | 1011.7 |
| 20260503130937 | 60 | 1 | 6.1 | 7.8 | 0.00 | 0.00 | 0.00 | 80 | 1011.6 |
| 20260503130212 | 60 | 285 | 4.3 | 7.8 | 0.00 | 0.00 | 0.00 | 81 | 1011.5 |
| 20260503120211 | 60 | 345 | 4.3 | 7.8 | 0.00 | 0.00 | 0.00 | 82 | 1011.1 |
| 20260503110711 | 60 | 338 | 6.1 | 8.7 | 0.00 | 0.00 | 0.00 | 84 | 1011.0 |
| 20260503110212 | 60 | 329 | 4.3 | 8.7 | 0.00 | 0.00 | 0.00 | 84 | 1011.0 |
| 20260503090350 | 61 | 285 | 6.1 | 7.0 | 0.00 | 0.00 | 0.00 | 83 | 1011.2 |
| 20260503081350 | 61 | 235 | 0.0 | 0.9 | 0.00 | 0.00 | 0.00 | 84 | 1012.0 |
| 20260503080850 | 61 | 250 | 0.0 | 0.9 | 0.00 | 0.00 | 0.00 | 84 | 1012.1 |
| 20260503080350 | 61 | 264 | 0.0 | 0.0 | 0.00 | 0.00 | 0.00 | 84 | 1012.0 |
| 20260503072850 | 60 | 246 | 0.0 | 0.9 | 0.00 | 0.00 | 0.00 | 85 | 1012.3 |
| 20260503072348 | 60 | 240 | 0.0 | 1.7 | 0.00 | 0.00 | 0.00 | 85 | 1012.3 |
| 20260503071850 | 60 | 267 | 0.9 | 2.6 | 0.00 | 0.00 | 0.00 | 85 | 1012.5 |
| 20260503071350 | 60 | 273 | 1.7 | 2.6 | 0.00 | 0.00 | 0.00 | 85 | 1012.5 |
| 20260503070850 | 60 | 249 | 0.0 | 1.7 | 0.00 | 0.00 | 0.00 | 85 | 1012.4 |
| 20260503070347 | 60 | 247 | 0.9 | 1.7 | 0.00 | 0.00 | 0.00 | 85 | 1012.4 |
| 20260503054849 | 60 | 242 | 0.9 | 4.3 | 0.00 | 0.00 | 0.00 | 87 | 1012.3 |
| 20260503054347 | 59 | 259 | 0.0 | 4.3 | 0.00 | 0.00 | 0.00 | 87 | 1012.3 |
| 20260503053847 | 59 | 255 | 0.9 | 4.3 | 0.00 | 0.00 | 0.00 | 87 | 1012.5 |
| 20260503053346 | 59 | 293 | 0.9 | 4.3 | 0.00 | 0.00 | 0.00 | 87 | 1012.4 |
| 20260503052847 | 59 | 277 | 1.7 | 5.2 | 0.00 | 0.00 | 0.00 | 87 | 1012.3 |
| 20260503052348 | 59 | 263 | 0.9 | 6.1 | 0.00 | 0.00 | 0.00 | 87 | 1012.2 |